Location: ??
(34.9170°N, 135.5016°E)
Time: 18:50:58
(UTC+00:00)

Cosmos 2098 Rocket - Pass Details

Date: 29 October 2020
Orbit: 366 x 1184 km, 82.9° (Epoch: 30 November)

Event Time Altitude Azimuth Distance (km) Brightness Sun altitude
Rises 20:38:46 0° 195° (SSW) 3,792 7.1 -8.4°
Reaches altitude 10° 20:41:36 10° 199° (SSW) 2,735 6.3 -7.9°
Maximum altitude 20:47:43 56° 277° (W) 993 3.8 -6.6°
Drops below altitude 10° 20:52:39 10° 356° (N) 2,206 5.7 -5.7°
Sets 20:54:45 0° 0° (N) 3,007 6.4 -5.2°
